| time (UTC) | temp F | wind direction | speed knots | gust knots | rain 1hr in | rain 24hr in | rain mn in | humidity % | barometer mb |
| 20260505153027 | 71 | 265 | 0.9 | 2.6 | 0.00 | 0.00 | 0.00 | 53 | 1010.4 |
| 20260505152027 | 70 | 354 | 0.9 | 2.6 | 0.00 | 0.00 | 0.00 | 57 | 1010.4 |
| 20260505151028 | 68 | 253 | 0.9 | 3.5 | 0.00 | 0.00 | 0.00 | 59 | 1010.6 |
| 20260505125021 | 62 | 309 | 1.7 | 6.1 | 0.00 | 0.00 | 0.00 | 68 | 1011.0 |
| 20260505124041 | 61 | 319 | 2.6 | 6.1 | 0.00 | 0.00 | 0.00 | 69 | 1011.1 |
| 20260505123041 | 61 | 327 | 1.7 | 5.2 | 0.00 | 0.00 | 0.00 | 70 | 1011.2 |
| 20260505122031 | 60 | 248 | 1.7 | 4.3 | 0.00 | 0.00 | 0.00 | 72 | 1011.1 |
| 20260505121030 | 59 | 284 | 0.9 | 2.6 | 0.00 | 0.00 | 0.00 | 74 | 1010.7 |
| 20260505120031 | 58 | 263 | 0.9 | 2.6 | 0.00 | 0.00 | 0.00 | 74 | 1010.9 |
| 20260505115022 | 58 | 325 | 1.7 | 5.2 | 0.00 | 0.00 | 0.00 | 76 | 1010.8 |
| 20260505114030 | 57 | 282 | 0.9 | 1.7 | 0.00 | 0.00 | 0.00 | 78 | 1010.7 |
| 20260505113031 | 56 | 298 | 0.9 | 2.6 | 0.00 | 0.00 | 0.00 | 80 | 1010.6 |
| 20260505112031 | 54 | 339 | 0.9 | 1.7 | 0.00 | 0.00 | 0.00 | 83 | 1010.6 |
| 20260505111030 | 54 | 8 | 0.9 | 1.7 | 0.00 | 0.00 | 0.00 | 84 | 1010.5 |
| 20260505102018 | 48 | 7 | 0.9 | 1.7 | 0.00 | 0.00 | 0.00 | 91 | 1010.3 |
| 20260505101017 | 48 | 8 | 1.7 | 2.6 | 0.00 | 0.00 | 0.00 | 91 | 1010.3 |
| 20260505100017 | 47 | 15 | 1.7 | 2.6 | 0.00 | 0.00 | 0.00 | 91 | 1010.1 |
| 20260505095018 | 47 | 5 | 1.7 | 2.6 | 0.00 | 0.00 | 0.00 | 91 | 1010.1 |
| 20260505094017 | 47 | 9 | 1.7 | 2.6 | 0.00 | 0.00 | 0.00 | 91 | 1010.2 |
| 20260505093018 | 47 | 16 | 1.7 | 3.5 | 0.00 | 0.00 | 0.00 | 90 | 1010.3 |
| 20260505092018 | 48 | 9 | 1.7 | 3.5 | 0.00 | 0.00 | 0.00 | 89 | 1010.3 |
| 20260505091019 | 48 | 15 | 1.7 | 2.6 | 0.00 | 0.00 | 0.00 | 89 | 1010.4 |
| 20260505090039 | 48 | 2 | 1.7 | 2.6 | 0.00 | 0.00 | 0.00 | 89 | 1010.3 |
| 20260505085019 | 48 | 12 | 0.9 | 2.6 | 0.00 | 0.00 | 0.00 | 89 | 1010.4 |
| 20260505084019 | 49 | 343 | 0.9 | 1.7 | 0.00 | 0.00 | 0.00 | 88 | 1010.4 |
| 20260505083039 | 49 | 321 | 0.9 | 1.7 | 0.00 | 0.00 | 0.00 | 88 | 1010.5 |
| 20260505082020 | 49 | 360 | 0.0 | 1.7 | 0.00 | 0.00 | 0.00 | 87 | 1010.6 |
| 20260505081019 | 49 | 283 | 0.9 | 1.7 | 0.00 | 0.00 | 0.00 | 87 | 1010.7 |
| 20260505080019 | 49 | 311 | 0.9 | 1.7 | 0.00 | 0.00 | 0.00 | 86 | 1010.8 |
| 20260505075020 | 50 | 304 | 0.9 | 1.7 | 0.00 | 0.00 | 0.00 | 86 | 1010.7 |
| 20260505074020 | 50 | 305 | 0.9 | 1.7 | 0.00 | 0.00 | 0.00 | 86 | 1010.7 |
| 20260505073020 | 50 | 285 | 0.9 | 1.7 | 0.00 | 0.00 | 0.00 | 85 | 1010.7 |
| 20260505072020 | 50 | 287 | 0.9 | 1.7 | 0.00 | 0.00 | 0.00 | 84 | 1010.7 |
| 20260505071021 | 50 | 323 | 0.9 | 1.7 | 0.00 | 0.00 | 0.00 | 83 | 1010.9 |
| 20260505070020 | 51 | 332 | 0.9 | 2.6 | 0.00 | 0.00 | 0.00 | 82 | 1010.9 |
| 20260505065020 | 51 | 263 | 0.9 | 2.6 | 0.00 | 0.00 | 0.00 | 82 | 1010.9 |
| 20260505064021 | 51 | 284 | 0.9 | 2.6 | 0.00 | 0.00 | 0.00 | 81 | 1010.9 |
| 20260505063041 | 51 | 310 | 0.9 | 3.5 | 0.00 | 0.00 | 0.00 | 81 | 1011.0 |
| 20260505062021 | 51 | 311 | 0.9 | 1.7 | 0.00 | 0.00 | 0.00 | 81 | 1011.1 |
| 20260505061022 | 51 | 252 | 0.9 | 1.7 | 0.00 | 0.00 | 0.00 | 80 | 1011.1 |
| 20260505060022 | 51 | 289 | 0.9 | 2.6 | 0.00 | 0.00 | 0.00 | 80 | 1011.1 |
| 20260505055022 | 51 | 282 | 0.0 | 1.7 | 0.00 | 0.00 | 0.00 | 79 | 1011.0 |
| 20260505054022 | 52 | 319 | 0.9 | 2.6 | 0.00 | 0.00 | 0.00 | 79 | 1011.1 |
| 20260505053021 | 52 | 325 | 0.9 | 1.7 | 0.00 | 0.00 | 0.00 | 78 | 1011.2 |
| 20260505052043 | 52 | 322 | 0.9 | 2.6 | 0.00 | 0.00 | 0.00 | 78 | 1011.1 |
| 20260505051023 | 52 | 308 | 0.9 | 1.7 | 0.00 | 0.00 | 0.00 | 77 | 1011.2 |
| 20260505041018 | 53 | 336 | 0.9 | 2.6 | 0.00 | 0.00 | 0.00 | 75 | 1011.3 |
| 20260505040018 | 53 | 329 | 0.9 | 1.7 | 0.00 | 0.00 | 0.00 | 74 | 1011.3 |
| 20260505035019 | 53 | 281 | 0.9 | 3.5 | 0.00 | 0.00 | 0.00 | 74 | 1011.3 |
| 20260505034019 | 54 | 261 | 1.7 | 3.5 | 0.00 | 0.00 | 0.00 | 73 | 1011.2 |
| 20260505033018 | 54 | 283 | 1.7 | 5.2 | 0.00 | 0.00 | 0.00 | 73 | 1011.2 |
| 20260505032019 | 54 | 261 | 0.9 | 3.5 | 0.00 | 0.00 | 0.00 | 72 | 1011.1 |
| 20260505031018 | 54 | 328 | 0.9 | 3.5 | 0.00 | 0.00 | 0.00 | 72 | 1011.1 |
| 20260505030019 | 54 | 287 | 1.7 | 3.5 | 0.00 | 0.00 | 0.00 | 71 | 1011.1 |
| 20260505025039 | 55 | 267 | 0.9 | 4.3 | 0.00 | 0.00 | 0.00 | 71 | 1011.1 |
| 20260505024019 | 55 | 260 | 1.7 | 3.5 | 0.00 | 0.00 | 0.00 | 71 | 1011.1 |
| 20260505023017 | 55 | 213 | 1.7 | 4.3 | 0.00 | 0.00 | 0.00 | 70 | 1011.2 |
| 20260505022017 | 55 | 258 | 0.9 | 3.5 | 0.00 | 0.00 | 0.00 | 69 | 1011.2 |
| 20260505021017 | 55 | 215 | 1.7 | 3.5 | 0.00 | 0.00 | 0.00 | 69 | 1011.3 |
| 20260505020020 | 55 | 244 | 1.7 | 4.3 | 0.00 | 0.00 | 0.00 | 69 | 1011.2 |
| 20260505015018 | 55 | 216 | 1.7 | 4.3 | 0.00 | 0.00 | 0.00 | 69 | 1011.2 |
| 20260505014020 | 55 | 250 | 0.9 | 2.6 | 0.00 | 0.00 | 0.00 | 67 | 1011.1 |
| 20260505013017 | 55 | 245 | 1.7 | 4.3 | 0.00 | 0.00 | 0.00 | 67 | 1011.1 |
| 20260505012038 | 56 | 227 | 1.7 | 4.3 | 0.00 | 0.00 | 0.00 | 66 | 1011.0 |
| 20260505011018 | 56 | 234 | 1.7 | 3.5 | 0.00 | 0.00 | 0.00 | 65 | 1010.8 |
| 20260505010018 | 56 | 242 | 0.9 | 3.5 | 0.00 | 0.00 | 0.00 | 64 | 1010.6 |
| 20260505005019 | 57 | 224 | 1.7 | 3.5 | 0.00 | 0.00 | 0.00 | 62 | 1010.4 |
| 20260505004018 | 57 | 227 | 2.6 | 7.0 | 0.00 | 0.00 | 0.00 | 61 | 1010.2 |
| 20260505003019 | 57 | 210 | 1.7 | 5.2 | 0.00 | 0.00 | 0.00 | 61 | 1010.0 |
| 20260505002019 | 58 | 221 | 1.7 | 3.5 | 0.00 | 0.00 | 0.00 | 60 | 1009.8 |
| 20260505001019 | 58 | 237 | 1.7 | 3.5 | 0.00 | 0.00 | 0.00 | 58 | 1009.6 |
| 20260505000019 | 59 | 219 | 1.7 | 4.3 | 0.00 | 0.00 | 0.00 | 56 | 1009.5 |
| 20260504235016 | 60 | 240 | 1.7 | 6.1 | 0.00 | 0.00 | 0.00 | 55 | 1009.4 |
| 20260504234017 | 60 | 269 | 1.7 | 4.3 | 0.00 | 0.00 | 0.00 | 54 | 1009.3 |
| 20260504233019 | 61 | 212 | 1.7 | 5.2 | 0.00 | 0.00 | 0.00 | 52 | 1009.2 |
| 20260504232020 | 62 | 212 | 2.6 | 4.3 | 0.00 | 0.00 | 0.00 | 51 | 1009.1 |
| 20260504231019 | 62 | 210 | 1.7 | 4.3 | 0.00 | 0.00 | 0.00 | 50 | 1009.0 |
| 20260504230018 | 63 | 214 | 2.6 | 7.0 | 0.00 | 0.00 | 0.00 | 50 | 1008.8 |
| 20260504225037 | 63 | 217 | 1.7 | 4.3 | 0.00 | 0.00 | 0.00 | 50 | 1008.7 |
| 20260504224017 | 63 | 224 | 1.7 | 5.2 | 0.00 | 0.00 | 0.00 | 49 | 1008.7 |
| 20260504223017 | 64 | 215 | 2.6 | 6.1 | 0.00 | 0.00 | 0.00 | 49 | 1008.6 |
| 20260504222017 | 66 | 213 | 3.5 | 7.8 | 0.00 | 0.00 | 0.00 | 47 | 1008.6 |
| 20260504221021 | 67 | 210 | 1.7 | 4.3 | 0.00 | 0.00 | 0.00 | 46 | 1008.5 |
| 20260504220018 | 67 | 210 | 2.6 | 6.1 | 0.00 | 0.00 | 0.00 | 45 | 1008.5 |
| 20260504215017 | 68 | 219 | 1.7 | 5.2 | 0.00 | 0.00 | 0.00 | 43 | 1008.3 |
| 20260504214059 | 68 | 211 | 1.7 | 4.3 | 0.00 | 0.00 | 0.00 | 44 | 1008.3 |
| 20260504213018 | 68 | 208 | 2.6 | 5.2 | 0.00 | 0.00 | 0.00 | 43 | 1008.4 |
| 20260504212019 | 68 | 218 | 1.7 | 4.3 | 0.00 | 0.00 | 0.00 | 42 | 1008.3 |
| 20260504211016 | 68 | 223 | 2.6 | 6.1 | 0.00 | 0.00 | 0.00 | 42 | 1008.2 |
| 20260504210019 | 69 | 221 | 2.6 | 6.1 | 0.00 | 0.00 | 0.00 | 41 | 1008.2 |
| 20260504205040 | 70 | 215 | 3.5 | 7.0 | 0.00 | 0.00 | 0.00 | 40 | 1008.2 |
| 20260504204039 | 70 | 219 | 1.7 | 5.2 | 0.00 | 0.00 | 0.00 | 40 | 1008.2 |
| 20260504203020 | 70 | 277 | 2.6 | 7.8 | 0.00 | 0.00 | 0.00 | 38 | 1008.1 |
| 20260504202017 | 70 | 234 | 1.7 | 7.8 | 0.00 | 0.00 | 0.00 | 38 | 1008.1 |
| 20260504201017 | 70 | 226 | 2.6 | 7.0 | 0.00 | 0.00 | 0.00 | 37 | 1008.1 |
| 20260504200017 | 70 | 263 | 1.7 | 5.2 | 0.00 | 0.00 | 0.00 | 37 | 1008.2 |
| 20260504195100 | 70 | 205 | 1.7 | 5.2 | 0.00 | 0.00 | 0.00 | 38 | 1008.1 |
| 20260504194017 | 69 | 225 | 2.6 | 7.0 | 0.00 | 0.00 | 0.00 | 38 | 1008.2 |
| 20260504193037 | 70 | 227 | 2.6 | 6.1 | 0.00 | 0.00 | 0.00 | 37 | 1008.2 |
| 20260504192018 | 69 | 232 | 2.6 | 7.0 | 0.00 | 0.00 | 0.00 | 37 | 1008.2 |
| 20260504191018 | 69 | 224 | 1.7 | 7.0 | 0.00 | 0.00 | 0.00 | 37 | 1008.3 |
| 20260504190019 | 69 | 211 | 2.6 | 6.1 | 0.00 | 0.00 | 0.00 | 37 | 1008.3 |
| 20260504185018 | 69 | 221 | 2.6 | 8.7 | 0.00 | 0.00 | 0.00 | 38 | 1008.3 |
| 20260504184019 | 69 | 229 | 2.6 | 6.1 | 0.00 | 0.00 | 0.00 | 37 | 1008.6 |
| 20260504183038 | 69 | 214 | 2.6 | 7.8 | 0.00 | 0.00 | 0.00 | 37 | 1008.6 |
| 20260504182019 | 69 | 213 | 2.6 | 7.0 | 0.00 | 0.00 | 0.00 | 38 | 1008.7 |
| 20260504181019 | 69 | 255 | 2.6 | 6.1 | 0.00 | 0.00 | 0.00 | 37 | 1008.8 |
| 20260504180019 | 69 | 241 | 2.6 | 7.0 | 0.00 | 0.00 | 0.00 | 37 | 1008.9 |
| 20260504175020 | 68 | 238 | 2.6 | 7.0 | 0.00 | 0.00 | 0.00 | 37 | 1009.0 |
| 20260504174036 | 68 | 265 | 3.5 | 7.8 | 0.00 | 0.00 | 0.00 | 36 | 1009.1 |
| 20260504173017 | 67 | 227 | 2.6 | 7.0 | 0.00 | 0.00 | 0.00 | 38 | 1008.9 |
| 20260504172040 | 67 | 235 | 3.5 | 7.0 | 0.00 | 0.00 | 0.00 | 37 | 1009.1 |
| 20260504171020 | 67 | 209 | 2.6 | 7.0 | 0.00 | 0.00 | 0.00 | 38 | 1009.0 |